Weather History for KGRI - November, 2013

Change the Weather History Date:

Wednesday, November 13, 2013

  Actual Average Record
Temperature  
Mean Temperature 43 °F 39 °F  
Max Temperature 58 °F 51 °F 82 °F (1999)
Min Temperature 28 °F 28 °F -4 °F (1940)
Degree Days  
Heating Degree Days 22 26  
Month to date heating degree days 307 292  
Since 1 July heating degree days 734 815  
Cooling Degree Days 0 0  
Month to date cooling degree days 0 0  
Year to date cooling degree days 1265 1034  
Moisture  
Dew Point 28 °F    
Average Humidity 57    
Maximum Humidity 75    
Minimum Humidity 39    
Precipitation  
Precipitation 0.00 in 0.04 in 1.26 in (1922)
Month to date precipitation 0.90 0.54  
Year to date precipitation 26.74 25.40  
Snow  
Snow 0.00 in 0.10 in 8.30 in (1972)
Month to date snowfall T 1.0  
Since 1 July snowfall T 2.1  
Since 1 September snowfall T 2.1  
Snow Depth 0.00 in    
Sea Level Pressure  
Sea Level Pressure 30.20 in    
Wind  
Wind Speed 14 mph (SSW)    
Max Wind Speed 26 mph    
Max Gust Speed 32 mph    
Visibility 10 miles    
Events      
T = Trace of Precipitation, MM = Missing Value Source: NWS Daily Summary

Daily Weather History Graph

Daily Weather History Graph

Search for Another Location

Airport or City:

Trip Planner

Search our weather history database for the weather conditions in past years. The results will help you decide how hot, cold, wet, or windy it might be!

Date:

Astronomy

Nov. 13, 2013 Rise Set
Actual Time 7:18 AM CST 5:16 PM CST
Civil Twilight 6:49 AM CST 5:45 PM CST
Nautical Twilight 6:16 AM CST 6:18 PM CST
Astronomical Twilight 5:43 AM CST 6:50 PM CST
Moon 3:05 PM CST (11/13) 3:11 AM CST (11/13)
Length of Visible Light 10h 56m
Length of Day
9h 57m
Waxing Gibbous, 85% of the Moon is Illuminated
Nov 13
Waxing Gibbous
Nov 17
Full
Nov 25
Last Quarter
Dec 2
New
Dec 9
First Quarter

Hourly Weather History & Observations

Time (CST) Temp. Windchill Dew Point Humidity Pressure Visibility Wind Dir Wind Speed Gust Speed Precip Events Conditions
12:53 AM 28.9 °F 18.6 °F 15.1 °F 56% 30.52 in 10.0 mi South 12.7 mph - N/A   Clear
1:53 AM 30.0 °F 20.0 °F 16.0 °F 56% 30.49 in 10.0 mi SSW 12.7 mph 24.2 mph N/A   Clear
2:53 AM 30.0 °F 18.7 °F 17.1 °F 59% 30.46 in 10.0 mi SSW 16.1 mph - N/A   Clear
3:53 AM 28.9 °F 18.2 °F 18.0 °F 64% 30.43 in 10.0 mi SSW 13.8 mph 21.9 mph N/A   Clear
4:53 AM 28.9 °F 17.7 °F 19.0 °F 67% 30.40 in 10.0 mi SSW 15.0 mph 23.0 mph N/A   Clear
5:53 AM 28.9 °F 18.6 °F 19.0 °F 67% 30.39 in 10.0 mi SSW 12.7 mph - N/A   Clear
6:53 AM 28.9 °F 19.2 °F 21.0 °F 72% 30.37 in 10.0 mi SSW 11.5 mph - N/A   Clear
7:53 AM 30.0 °F 20.5 °F 21.0 °F 69% 30.36 in 10.0 mi SSW 11.5 mph - N/A   Clear
8:53 AM 33.1 °F 24.4 °F 21.9 °F 64% 30.35 in 10.0 mi SSW 11.5 mph - N/A   Clear
9:53 AM 39.0 °F 29.6 °F 25.0 °F 57% 30.30 in 10.0 mi SSW 18.4 mph 25.3 mph N/A   Clear
10:53 AM 46.0 °F 38.5 °F 28.0 °F 50% 30.26 in 10.0 mi SSW 19.6 mph 26.5 mph N/A   Clear
11:53 AM 52.0 °F - 30.0 °F 43% 30.22 in 10.0 mi SSW 17.3 mph 24.2 mph N/A   Clear
12:53 PM 55.0 °F - 32.0 °F 42% 30.16 in 10.0 mi SSW 20.7 mph 27.6 mph N/A   Clear
1:53 PM 57.0 °F - 32.0 °F 39% 30.12 in 10.0 mi SSW 17.3 mph 27.6 mph N/A   Clear
2:53 PM 57.9 °F - 32.0 °F 37% 30.08 in 10.0 mi South 19.6 mph 29.9 mph N/A   Clear
3:53 PM 57.9 °F - 33.1 °F 39% 30.06 in 10.0 mi SSW 12.7 mph 28.8 mph N/A   Clear
4:53 PM 55.9 °F - 34.0 °F 44% 30.04 in 10.0 mi SSW 13.8 mph - N/A   Clear
5:53 PM 53.1 °F - 36.0 °F 52% 30.04 in 10.0 mi SSW 10.4 mph - N/A   Clear
6:53 PM 48.9 °F - 36.0 °F 61% 30.05 in 10.0 mi SSW 5.8 mph - N/A   Clear
7:53 PM 48.9 °F - 37.0 °F 64% 30.04 in 10.0 mi SSW 11.5 mph - N/A   Clear
8:53 PM 48.9 °F - 37.0 °F 64% 30.02 in 10.0 mi South 13.8 mph - N/A   Clear
9:53 PM 48.0 °F - 36.0 °F 63% 30.00 in 10.0 mi SSW 13.8 mph - N/A   Clear
10:53 PM 46.9 °F - 35.1 °F 63% 29.98 in 10.0 mi SSW 13.8 mph - N/A   Clear
11:53 PM 45.0 °F 38.5 °F 33.1 °F 63% 29.95 in 10.0 mi SSW 13.8 mph - N/A   Clear